SCOUT X-4 DEB

基本信息
目录编号:
2011
目录名称:
SCOUT X-4 DEB
国际标识:
1965-032D
轨道中心:
EARTH
物体状态:
在轨
发射日期:
1965-04-29 UTC
轨道信息
数据来源: 国际轨道数据
星历时间: 2026-07-14T04:43:52+0800
半长轴: 7483.687km
偏心率: 0.0222023
轨道倾角: 41.199°
近地点辐角: 77.447°
升交点赤经: 7.021°
平近点角: 59.970°
近地点: 939.394km
远地点: 1271.706km
周期: 107.382分钟
每日圈数: 13.410019
详细信息
发射场:
WLPIS
轨道高度:
LEO
数据来源:
AOE Integration Group
参考系:
TEME
时间系统:
UTC
历元类型:
SGP4
2D轨道图
3D轨道图
轨道高度分析图
轨道倾角分析图
轨道综合分析图
查看轨道综合分析图